Year,Month,Day,Hour,Minute,Value (Times are PST for temperature in C)
2015,07,01,00,00,17.40
2015,07,01,00,01,17.30
2015,07,01,00,02,17.30
2015,07,01,00,03,17.30
2015,07,01,00,04,17.30
2015,07,01,00,05,17.40
2015,07,01,00,06,17.40
2015,07,01,00,07,17.40
2015,07,01,00,08,17.40
2015,07,01,00,09,17.40
2015,07,01,00,10,17.40
2015,07,01,00,11,17.40
2015,07,01,00,12,17.40
2015,07,01,00,13,17.50
2015,07,01,00,14,17.50
2015,07,01,00,15,17.50
2015,07,01,00,16,17.50
2015,07,01,00,17,17.50
2015,07,01,00,18,17.40
2015,07,01,00,19,17.40
2015,07,01,00,20,17.40
2015,07,01,00,21,17.40
2015,07,01,00,22,17.40
2015,07,01,00,23,17.40
2015,07,01,00,24,17.30
2015,07,01,00,25,17.30
2015,07,01,00,26,17.30
2015,07,01,00,27,17.30
2015,07,01,00,28,17.30
2015,07,01,00,29,17.30
2015,07,01,00,30,17.30
2015,07,01,00,31,17.30
2015,07,01,00,32,17.30
2015,07,01,00,33,17.30
2015,07,01,00,34,17.30
2015,07,01,00,35,17.30
2015,07,01,00,36,17.30
2015,07,01,00,37,17.30
2015,07,01,00,38,17.20
2015,07,01,00,39,17.20
2015,07,01,00,40,17.10
2015,07,01,00,41,17.10
2015,07,01,00,42,17.10
2015,07,01,00,43,17.10
2015,07,01,00,44,17.10
2015,07,01,00,45,17.00
2015,07,01,00,46,17.00
2015,07,01,00,47,17.00
2015,07,01,00,48,17.00
2015,07,01,00,49,17.00
2015,07,01,00,50,17.00
2015,07,01,00,51,17.10
2015,07,01,00,52,17.10
2015,07,01,00,53,17.10
2015,07,01,00,54,17.10
2015,07,01,00,55,17.10
2015,07,01,00,56,17.10
2015,07,01,00,57,17.10
2015,07,01,00,58,17.10
2015,07,01,00,59,17.00
2015,07,01,01,00,17.00
2015,07,01,01,01,17.00
2015,07,01,01,02,17.00
2015,07,01,01,03,17.00
2015,07,01,01,04,16.90
2015,07,01,01,05,16.90
2015,07,01,01,06,16.90
2015,07,01,01,07,16.90
2015,07,01,01,08,16.90
2015,07,01,01,09,16.80
2015,07,01,01,10,16.80
2015,07,01,01,11,16.80
2015,07,01,01,12,16.70
2015,07,01,01,13,16.70
2015,07,01,01,14,16.70
2015,07,01,01,15,16.70
2015,07,01,01,16,16.70
2015,07,01,01,17,16.70
2015,07,01,01,18,16.70
2015,07,01,01,19,16.70
2015,07,01,01,20,16.70
2015,07,01,01,21,16.70
2015,07,01,01,22,16.70
2015,07,01,01,23,16.70
2015,07,01,01,24,16.60
2015,07,01,01,25,16.60
2015,07,01,01,26,16.60
2015,07,01,01,27,16.60
2015,07,01,01,28,16.60
2015,07,01,01,29,16.60
2015,07,01,01,30,16.60
2015,07,01,01,31,16.50
2015,07,01,01,32,16.40
2015,07,01,01,33,16.40
2015,07,01,01,34,16.40
2015,07,01,01,35,16.40
2015,07,01,01,36,16.40
2015,07,01,01,37,16.30
2015,07,01,01,38,16.30
2015,07,01,01,39,16.30
2015,07,01,01,40,16.30
2015,07,01,01,41,16.30
2015,07,01,01,42,16.30
2015,07,01,01,43,16.30
2015,07,01,01,44,16.20
2015,07,01,01,45,16.20
2015,07,01,01,46,16.20
2015,07,01,01,47,16.10
2015,07,01,01,48,16.10
2015,07,01,01,49,16.10
2015,07,01,01,50,16.00
2015,07,01,01,51,16.00
2015,07,01,01,52,16.10
2015,07,01,01,53,16.10
2015,07,01,01,54,16.10
2015,07,01,01,55,16.10
2015,07,01,01,56,16.10
2015,07,01,01,57,16.10
2015,07,01,01,58,16.10
2015,07,01,01,59,16.10
2015,07,01,02,00,16.10
2015,07,01,02,01,16.00
2015,07,01,02,02,15.90
2015,07,01,02,03,15.90
2015,07,01,02,04,15.80
2015,07,01,02,05,15.80
2015,07,01,02,06,15.80
2015,07,01,02,07,15.90
2015,07,01,02,08,16.00
2015,07,01,02,09,16.10
2015,07,01,02,10,16.10
2015,07,01,02,11,16.10
2015,07,01,02,12,16.10
2015,07,01,02,13,16.10
2015,07,01,02,14,16.10
2015,07,01,02,15,16.10
2015,07,01,02,16,16.10
2015,07,01,02,17,16.10
2015,07,01,02,18,16.10
2015,07,01,02,19,16.10
2015,07,01,02,20,16.10
2015,07,01,02,21,16.10
2015,07,01,02,22,16.10
2015,07,01,02,23,16.10
2015,07,01,02,24,16.10
2015,07,01,02,25,16.00
2015,07,01,02,26,15.90
2015,07,01,02,27,15.90
2015,07,01,02,28,15.90
2015,07,01,02,29,15.80
2015,07,01,02,30,15.80
2015,07,01,02,31,15.80
2015,07,01,02,32,15.80
2015,07,01,02,33,15.80
2015,07,01,02,34,15.80
2015,07,01,02,35,15.80
2015,07,01,02,36,15.80
2015,07,01,02,37,15.70
2015,07,01,02,38,15.70
2015,07,01,02,39,15.70
2015,07,01,02,40,15.60
2015,07,01,02,41,15.60
2015,07,01,02,42,15.60
2015,07,01,02,43,15.60
2015,07,01,02,44,15.50
2015,07,01,02,45,15.50
2015,07,01,02,46,15.50
2015,07,01,02,47,15.50
2015,07,01,02,48,15.50
2015,07,01,02,49,15.50
2015,07,01,02,50,15.40
2015,07,01,02,51,15.40
2015,07,01,02,52,15.40
2015,07,01,02,53,15.40
2015,07,01,02,54,15.40
2015,07,01,02,55,15.40
2015,07,01,02,56,15.40
2015,07,01,02,57,15.40
2015,07,01,02,58,15.40
2015,07,01,02,59,15.40
2015,07,01,03,00,15.40
2015,07,01,03,01,15.40
2015,07,01,03,02,15.40
2015,07,01,03,03,15.40
2015,07,01,03,04,15.30
2015,07,01,03,05,15.30
2015,07,01,03,06,15.30
2015,07,01,03,07,15.30
2015,07,01,03,08,15.30
2015,07,01,03,09,15.30
2015,07,01,03,10,15.30
2015,07,01,03,11,15.30
2015,07,01,03,12,15.30
2015,07,01,03,13,15.30
2015,07,01,03,14,15.30
2015,07,01,03,15,15.30
2015,07,01,03,16,15.20
2015,07,01,03,17,15.20
2015,07,01,03,18,15.20
2015,07,01,03,19,15.20
2015,07,01,03,20,15.10
2015,07,01,03,21,15.10
2015,07,01,03,22,15.10
2015,07,01,03,23,15.10
2015,07,01,03,24,15.00
2015,07,01,03,25,15.00
2015,07,01,03,26,15.00
2015,07,01,03,27,15.00
2015,07,01,03,28,14.90
2015,07,01,03,29,14.90
2015,07,01,03,30,14.90
2015,07,01,03,31,14.90
2015,07,01,03,32,14.80
2015,07,01,03,33,14.80
2015,07,01,03,34,14.80
2015,07,01,03,35,14.80
2015,07,01,03,36,14.80
2015,07,01,03,37,14.80
2015,07,01,03,38,14.80
2015,07,01,03,39,14.80
2015,07,01,03,40,14.80
2015,07,01,03,41,14.80
2015,07,01,03,42,14.80
2015,07,01,03,43,14.70
2015,07,01,03,44,14.70
2015,07,01,03,45,14.70
2015,07,01,03,46,14.70
2015,07,01,03,47,14.70
2015,07,01,03,48,14.70
2015,07,01,03,49,14.80
2015,07,01,03,50,14.80
2015,07,01,03,51,14.80
2015,07,01,03,52,14.80
2015,07,01,03,53,14.80
2015,07,01,03,54,14.80
2015,07,01,03,55,14.80
2015,07,01,03,56,14.80
2015,07,01,03,57,14.80
2015,07,01,03,58,14.80
2015,07,01,03,59,14.80
2015,07,01,04,00,14.80
2015,07,01,04,01,14.80
2015,07,01,04,02,14.80
2015,07,01,04,03,14.90
2015,07,01,04,04,14.90
2015,07,01,04,05,14.90
2015,07,01,04,06,14.90
2015,07,01,04,07,14.90
2015,07,01,04,08,14.90
2015,07,01,04,09,14.90
2015,07,01,04,10,14.90
2015,07,01,04,11,14.90
2015,07,01,04,12,14.90
2015,07,01,04,13,14.90
2015,07,01,04,14,14.90
2015,07,01,04,15,14.90
2015,07,01,04,16,14.90
2015,07,01,04,17,14.90
2015,07,01,04,18,14.90
2015,07,01,04,19,14.90
2015,07,01,04,20,14.90
2015,07,01,04,21,14.90
2015,07,01,04,22,14.90
2015,07,01,04,23,14.90
2015,07,01,04,24,14.90
2015,07,01,04,25,14.80
2015,07,01,04,26,14.80
2015,07,01,04,27,14.80
2015,07,01,04,28,14.80
2015,07,01,04,29,14.80
2015,07,01,04,30,14.80
2015,07,01,04,31,14.80
2015,07,01,04,32,14.80
2015,07,01,04,33,14.70
2015,07,01,04,34,14.70
2015,07,01,04,35,14.70
2015,07,01,04,36,14.70
2015,07,01,04,37,14.60
2015,07,01,04,38,14.60
2015,07,01,04,39,14.60
2015,07,01,04,40,14.60
2015,07,01,04,41,14.50
2015,07,01,04,42,14.50
2015,07,01,04,43,14.50
2015,07,01,04,44,14.50
2015,07,01,04,45,14.40
2015,07,01,04,46,14.40
2015,07,01,04,47,14.40
2015,07,01,04,48,14.40
2015,07,01,04,49,14.40
2015,07,01,04,50,14.40
2015,07,01,04,51,14.30
2015,07,01,04,52,14.30
2015,07,01,04,53,14.30
2015,07,01,04,54,14.30
2015,07,01,04,55,14.30
2015,07,01,04,56,14.30
2015,07,01,04,57,14.30
2015,07,01,04,58,14.20
2015,07,01,04,59,14.20
2015,07,01,05,00,14.20
2015,07,01,05,01,14.20
2015,07,01,05,02,14.20
2015,07,01,05,03,14.20
2015,07,01,05,04,14.20
2015,07,01,05,05,14.20
2015,07,01,05,06,14.20
2015,07,01,05,07,14.20
2015,07,01,05,08,14.20
2015,07,01,05,09,14.20
2015,07,01,05,10,14.20
2015,07,01,05,11,14.20
2015,07,01,05,12,14.20
2015,07,01,05,13,14.20
2015,07,01,05,14,14.20
2015,07,01,05,15,14.20
2015,07,01,05,16,14.20
2015,07,01,05,17,14.20
2015,07,01,05,18,14.20
2015,07,01,05,19,14.20
2015,07,01,05,20,14.20
2015,07,01,05,21,14.20
2015,07,01,05,22,14.20
2015,07,01,05,23,14.20
2015,07,01,05,24,14.20
2015,07,01,05,25,14.20
2015,07,01,05,26,14.20
2015,07,01,05,27,14.20
2015,07,01,05,28,14.20
2015,07,01,05,29,14.20
2015,07,01,05,30,14.20
2015,07,01,05,31,14.20
2015,07,01,05,32,14.20
2015,07,01,05,33,14.20
2015,07,01,05,34,14.20
2015,07,01,05,35,14.20
2015,07,01,05,36,14.20
2015,07,01,05,37,14.20
2015,07,01,05,38,14.20
2015,07,01,05,39,14.20
2015,07,01,05,40,14.20
2015,07,01,05,41,14.10
2015,07,01,05,42,14.10
2015,07,01,05,43,14.00
2015,07,01,05,44,14.00
2015,07,01,05,45,14.00
2015,07,01,05,46,13.90
2015,07,01,05,47,13.90
2015,07,01,05,48,13.90
2015,07,01,05,49,13.90
2015,07,01,05,50,13.90
2015,07,01,05,51,13.90
2015,07,01,05,52,13.90
2015,07,01,05,53,13.90
2015,07,01,05,54,13.90
2015,07,01,05,55,13.90
2015,07,01,05,56,13.90
2015,07,01,05,57,13.90
2015,07,01,05,58,14.00
2015,07,01,05,59,14.00
2015,07,01,06,00,14.00
2015,07,01,06,01,14.10
2015,07,01,06,02,14.10
2015,07,01,06,03,14.20
2015,07,01,06,04,14.20
2015,07,01,06,05,14.20
2015,07,01,06,06,14.20
2015,07,01,06,07,14.20
2015,07,01,06,08,14.30
2015,07,01,06,09,14.30
2015,07,01,06,10,14.40
2015,07,01,06,11,14.40
2015,07,01,06,12,14.50
2015,07,01,06,13,14.50
2015,07,01,06,14,14.60
2015,07,01,06,15,14.70
2015,07,01,06,16,14.70
2015,07,01,06,17,14.80
2015,07,01,06,18,14.80
2015,07,01,06,19,14.90
2015,07,01,06,20,14.90
2015,07,01,06,21,15.00
2015,07,01,06,22,15.00
2015,07,01,06,23,15.10
2015,07,01,06,24,15.10
2015,07,01,06,25,15.20
2015,07,01,06,26,15.20
2015,07,01,06,27,15.30
2015,07,01,06,28,15.30
2015,07,01,06,29,15.40
2015,07,01,06,30,15.50
2015,07,01,06,31,15.50
2015,07,01,06,32,15.60
2015,07,01,06,33,15.70
2015,07,01,06,34,15.80
2015,07,01,06,35,15.80
2015,07,01,06,36,15.90
2015,07,01,06,37,16.00
2015,07,01,06,38,16.10
2015,07,01,06,39,16.20
2015,07,01,06,40,16.30
2015,07,01,06,41,16.40
2015,07,01,06,42,16.40
2015,07,01,06,43,16.40
2015,07,01,06,44,16.40
2015,07,01,06,45,16.40
2015,07,01,06,46,16.50
2015,07,01,06,47,16.60
2015,07,01,06,48,16.60
2015,07,01,06,49,16.60
2015,07,01,06,50,16.60
2015,07,01,06,51,16.60
2015,07,01,06,52,16.70
2015,07,01,06,53,16.70
2015,07,01,06,54,16.70
2015,07,01,06,55,16.70
2015,07,01,06,56,16.70
2015,07,01,06,57,16.70
2015,07,01,06,58,16.80
2015,07,01,06,59,16.80
2015,07,01,07,00,16.80
2015,07,01,07,01,16.80
2015,07,01,07,02,16.80
2015,07,01,07,03,16.80
2015,07,01,07,04,16.90
2015,07,01,07,05,16.90
2015,07,01,07,06,16.90
2015,07,01,07,07,16.90
2015,07,01,07,08,16.90
2015,07,01,07,09,16.90
2015,07,01,07,10,17.00
2015,07,01,07,11,17.00
2015,07,01,07,12,17.00
2015,07,01,07,13,17.00
2015,07,01,07,14,17.10
2015,07,01,07,15,17.10
2015,07,01,07,16,17.20
2015,07,01,07,17,17.30
2015,07,01,07,18,17.30
2015,07,01,07,19,17.30
2015,07,01,07,20,17.40
2015,07,01,07,21,17.40
2015,07,01,07,22,17.50
2015,07,01,07,23,17.60
2015,07,01,07,24,17.60
2015,07,01,07,25,17.70
2015,07,01,07,26,17.70
2015,07,01,07,27,17.70
2015,07,01,07,28,17.80
2015,07,01,07,29,17.80
2015,07,01,07,30,17.90
2015,07,01,07,31,17.90
2015,07,01,07,32,17.90
2015,07,01,07,33,17.90
2015,07,01,07,34,18.00
2015,07,01,07,35,18.10
2015,07,01,07,36,18.10
2015,07,01,07,37,18.20
2015,07,01,07,38,18.20
2015,07,01,07,39,18.20
2015,07,01,07,40,18.20
2015,07,01,07,41,18.20
2015,07,01,07,42,18.20
2015,07,01,07,43,18.20
2015,07,01,07,44,18.20
2015,07,01,07,45,18.20
2015,07,01,07,46,18.20
2015,07,01,07,47,18.20
2015,07,01,07,48,18.20
2015,07,01,07,49,18.20
2015,07,01,07,50,18.20
2015,07,01,07,51,18.20
2015,07,01,07,52,18.20
2015,07,01,07,53,18.20
2015,07,01,07,54,18.20
2015,07,01,07,55,18.20
2015,07,01,07,56,18.20
2015,07,01,07,57,18.20
2015,07,01,07,58,18.20
2015,07,01,07,59,18.20
2015,07,01,08,00,18.20
2015,07,01,08,01,18.20
2015,07,01,08,02,18.20
2015,07,01,08,03,18.20
2015,07,01,08,04,18.20
2015,07,01,08,05,18.20
2015,07,01,08,06,18.20
2015,07,01,08,07,18.20
2015,07,01,08,08,18.20
2015,07,01,08,09,18.10
2015,07,01,08,10,18.10
2015,07,01,08,11,18.10
2015,07,01,08,12,18.00
2015,07,01,08,13,17.90
2015,07,01,08,14,17.90
2015,07,01,08,15,17.90
2015,07,01,08,16,17.90
2015,07,01,08,17,17.90
2015,07,01,08,18,17.80
2015,07,01,08,19,17.80
2015,07,01,08,20,17.70
2015,07,01,08,21,17.70
2015,07,01,08,22,17.70
2015,07,01,08,23,17.70
2015,07,01,08,24,17.60
2015,07,01,08,25,17.60
2015,07,01,08,26,17.60
2015,07,01,08,27,17.50
2015,07,01,08,28,17.50
2015,07,01,08,29,17.50
2015,07,01,08,30,17.60
2015,07,01,08,31,17.60
2015,07,01,08,32,17.60
2015,07,01,08,33,17.60
2015,07,01,08,34,17.60
2015,07,01,08,35,17.60
2015,07,01,08,36,17.60
2015,07,01,08,37,17.70
2015,07,01,08,38,17.70
2015,07,01,08,39,17.70
2015,07,01,08,40,17.70
2015,07,01,08,41,17.80
2015,07,01,08,42,17.80
2015,07,01,08,43,17.90
2015,07,01,08,44,18.00
2015,07,01,08,45,18.10
2015,07,01,08,46,18.10
2015,07,01,08,47,18.20
2015,07,01,08,48,18.20
2015,07,01,08,49,18.20
2015,07,01,08,50,18.30
2015,07,01,08,51,18.40
2015,07,01,08,52,18.50
2015,07,01,08,53,18.50
2015,07,01,08,54,18.60
2015,07,01,08,55,18.70
2015,07,01,08,56,18.80
2015,07,01,08,57,18.90
2015,07,01,08,58,18.90
2015,07,01,08,59,19.00
2015,07,01,09,00,19.10
2015,07,01,09,01,19.10
2015,07,01,09,02,19.10
2015,07,01,09,03,19.20
2015,07,01,09,04,19.20
2015,07,01,09,05,19.20
2015,07,01,09,06,19.20
2015,07,01,09,07,19.20
2015,07,01,09,08,19.20
2015,07,01,09,09,19.20
2015,07,01,09,10,19.20
2015,07,01,09,11,19.20
2015,07,01,09,12,19.10
2015,07,01,09,13,19.10
2015,07,01,09,14,19.10
2015,07,01,09,15,19.20
2015,07,01,09,16,19.20
2015,07,01,09,17,19.20
2015,07,01,09,18,19.30
2015,07,01,09,19,19.30
2015,07,01,09,20,19.30
2015,07,01,09,21,19.30
2015,07,01,09,22,19.30
2015,07,01,09,23,19.20
2015,07,01,09,24,19.20
2015,07,01,09,25,19.20
2015,07,01,09,26,19.20
2015,07,01,09,27,19.20
2015,07,01,09,28,19.20
2015,07,01,09,29,19.30
2015,07,01,09,30,19.30
2015,07,01,09,31,19.30
2015,07,01,09,32,19.40
2015,07,01,09,33,19.30
2015,07,01,09,34,19.30
2015,07,01,09,35,19.30
2015,07,01,09,36,19.30
2015,07,01,09,37,19.20
2015,07,01,09,38,19.20
2015,07,01,09,39,19.20
2015,07,01,09,40,19.20
2015,07,01,09,41,19.20
2015,07,01,09,42,19.30
2015,07,01,09,43,19.40
2015,07,01,09,44,19.40
2015,07,01,09,45,19.50
2015,07,01,09,46,19.50
2015,07,01,09,47,19.50
2015,07,01,09,48,19.50
2015,07,01,09,49,19.50
2015,07,01,09,50,19.50
2015,07,01,09,51,19.60
2015,07,01,09,52,19.60
2015,07,01,09,53,19.70
2015,07,01,09,54,19.70
2015,07,01,09,55,19.80
2015,07,01,09,56,19.80
2015,07,01,09,57,19.90
2015,07,01,09,58,19.90
2015,07,01,09,59,20.10
2015,07,01,10,00,20.10
2015,07,01,10,01,20.20
2015,07,01,10,02,20.20
2015,07,01,10,03,20.20
2015,07,01,10,04,20.20
2015,07,01,10,05,20.30
2015,07,01,10,06,20.40
2015,07,01,10,07,20.40
2015,07,01,10,08,20.40
2015,07,01,10,09,20.50
2015,07,01,10,10,20.50
2015,07,01,10,11,20.60
2015,07,01,10,12,20.60
2015,07,01,10,13,20.70
2015,07,01,10,14,20.80
2015,07,01,10,15,20.80
2015,07,01,10,16,20.80
2015,07,01,10,17,20.80
2015,07,01,10,18,20.70
2015,07,01,10,19,20.70
2015,07,01,10,20,20.50
2015,07,01,10,21,20.50
2015,07,01,10,22,20.50
2015,07,01,10,23,20.50
2015,07,01,10,24,20.50
2015,07,01,10,25,20.50
2015,07,01,10,26,20.50
2015,07,01,10,27,20.50
2015,07,01,10,28,20.50
2015,07,01,10,29,20.60
2015,07,01,10,30,20.60
2015,07,01,10,31,20.70
2015,07,01,10,32,20.70
2015,07,01,10,33,20.70
2015,07,01,10,34,20.70
2015,07,01,10,35,20.60
2015,07,01,10,36,20.60
2015,07,01,10,37,20.70
2015,07,01,10,38,20.70
2015,07,01,10,39,20.70
2015,07,01,10,40,20.70
2015,07,01,10,41,20.80
2015,07,01,10,42,20.80
2015,07,01,10,43,20.80
2015,07,01,10,44,20.80
2015,07,01,10,45,20.80
2015,07,01,10,46,20.80
2015,07,01,10,47,20.80
2015,07,01,10,48,20.80
2015,07,01,10,49,20.90
2015,07,01,10,50,21.00
2015,07,01,10,51,21.00
2015,07,01,10,52,21.10
2015,07,01,10,53,21.10
2015,07,01,10,54,21.20
2015,07,01,10,55,21.30
2015,07,01,10,56,21.30
2015,07,01,10,57,21.40
2015,07,01,10,58,21.50
2015,07,01,10,59,21.60
2015,07,01,11,00,21.60
2015,07,01,11,01,21.80
2015,07,01,11,02,21.90
2015,07,01,11,03,22.00
2015,07,01,11,04,22.00
2015,07,01,11,05,22.20
2015,07,01,11,06,22.30
2015,07,01,11,07,22.30
2015,07,01,11,08,22.30
2015,07,01,11,09,22.20
2015,07,01,11,10,22.10
2015,07,01,11,11,22.00
2015,07,01,11,12,21.90
2015,07,01,11,13,21.90
2015,07,01,11,14,21.80
2015,07,01,11,15,21.80
2015,07,01,11,16,21.80
2015,07,01,11,17,21.80
2015,07,01,11,18,21.80
2015,07,01,11,19,21.70
2015,07,01,11,20,21.70
2015,07,01,11,21,21.60
2015,07,01,11,22,21.60
2015,07,01,11,23,21.60
2015,07,01,11,24,21.70
2015,07,01,11,25,21.70
2015,07,01,11,26,21.80
2015,07,01,11,27,21.90
2015,07,01,11,28,21.90
2015,07,01,11,29,21.90
2015,07,01,11,30,22.00
2015,07,01,11,31,22.00
2015,07,01,11,32,22.10
2015,07,01,11,33,22.20
2015,07,01,11,34,22.40
2015,07,01,11,35,22.50
2015,07,01,11,36,22.70
2015,07,01,11,37,22.70
2015,07,01,11,38,22.70
2015,07,01,11,39,22.70
2015,07,01,11,40,22.60
2015,07,01,11,41,22.60
2015,07,01,11,42,22.60
2015,07,01,11,43,22.50
2015,07,01,11,44,22.30
2015,07,01,11,45,22.10
2015,07,01,11,46,22.00
2015,07,01,11,47,21.90
2015,07,01,11,48,21.90
2015,07,01,11,49,21.80
2015,07,01,11,50,21.80
2015,07,01,11,51,21.80
2015,07,01,11,52,21.80
2015,07,01,11,53,21.80
2015,07,01,11,54,21.80
2015,07,01,11,55,21.80
2015,07,01,11,56,21.80
2015,07,01,11,57,21.80
2015,07,01,11,58,21.80
2015,07,01,11,59,21.90
2015,07,01,12,00,22.00
2015,07,01,12,01,22.20
2015,07,01,12,02,22.30
2015,07,01,12,03,22.40
2015,07,01,12,04,22.50
2015,07,01,12,05,22.60
2015,07,01,12,06,22.70
2015,07,01,12,07,22.70
2015,07,01,12,08,22.70
2015,07,01,12,09,22.80
2015,07,01,12,10,22.80
2015,07,01,12,11,22.90
2015,07,01,12,12,22.90
2015,07,01,12,13,22.90
2015,07,01,12,14,23.00
2015,07,01,12,15,23.10
2015,07,01,12,16,23.20
2015,07,01,12,17,23.30
2015,07,01,12,18,23.30
2015,07,01,12,19,23.40
2015,07,01,12,20,23.40
2015,07,01,12,21,23.40
2015,07,01,12,22,23.40
2015,07,01,12,23,23.60
2015,07,01,12,24,23.60
2015,07,01,12,25,23.60
2015,07,01,12,26,23.60
2015,07,01,12,27,23.60
2015,07,01,12,28,23.70
2015,07,01,12,29,23.70
2015,07,01,12,30,23.70
2015,07,01,12,31,23.80
2015,07,01,12,32,23.80
2015,07,01,12,33,23.80
2015,07,01,12,34,23.90
2015,07,01,12,35,23.90
2015,07,01,12,36,23.90
2015,07,01,12,37,23.90
2015,07,01,12,38,23.80
2015,07,01,12,39,23.80
2015,07,01,12,40,23.80
2015,07,01,12,41,23.80
2015,07,01,12,42,23.80
2015,07,01,12,43,23.90
2015,07,01,12,44,23.90
2015,07,01,12,45,23.90
2015,07,01,12,46,23.90
2015,07,01,12,47,23.80
2015,07,01,12,48,23.90
2015,07,01,12,49,23.90
2015,07,01,12,50,23.90
2015,07,01,12,51,23.90
2015,07,01,12,52,23.90
2015,07,01,12,53,23.90
2015,07,01,12,54,23.90
2015,07,01,12,55,24.00
2015,07,01,12,56,24.10
2015,07,01,12,57,24.10
2015,07,01,12,58,24.20
2015,07,01,12,59,24.20
2015,07,01,13,00,24.20
2015,07,01,13,01,24.20
2015,07,01,13,02,24.20
2015,07,01,13,03,24.30
2015,07,01,13,04,24.20
2015,07,01,13,05,24.20
2015,07,01,13,06,24.20
2015,07,01,13,07,24.20
2015,07,01,13,08,24.20
2015,07,01,13,09,24.20
2015,07,01,13,10,24.20
2015,07,01,13,11,24.20
2015,07,01,13,12,24.20
2015,07,01,13,13,24.20
2015,07,01,13,14,24.20
2015,07,01,13,15,24.30
2015,07,01,13,16,24.40
2015,07,01,13,17,24.50
2015,07,01,13,18,24.60
2015,07,01,13,19,24.70
2015,07,01,13,20,24.70
2015,07,01,13,21,24.70
2015,07,01,13,22,24.70
2015,07,01,13,23,24.70
2015,07,01,13,24,24.70
2015,07,01,13,25,24.80
2015,07,01,13,26,24.90
2015,07,01,13,27,24.90
2015,07,01,13,28,25.00
2015,07,01,13,29,25.20
2015,07,01,13,30,25.20
2015,07,01,13,31,25.30
2015,07,01,13,32,25.40
2015,07,01,13,33,25.40
2015,07,01,13,34,25.50
2015,07,01,13,35,25.50
2015,07,01,13,36,25.50
2015,07,01,13,37,25.50
2015,07,01,13,38,25.50
2015,07,01,13,39,25.50
2015,07,01,13,40,25.50
2015,07,01,13,41,25.50
2015,07,01,13,42,25.50
2015,07,01,13,43,25.50
2015,07,01,13,44,25.50
2015,07,01,13,45,25.50
2015,07,01,13,46,25.50
2015,07,01,13,47,25.60
2015,07,01,13,48,25.60
2015,07,01,13,49,25.60
2015,07,01,13,50,25.70
2015,07,01,13,51,25.70
2015,07,01,13,52,25.80
2015,07,01,13,53,25.80
2015,07,01,13,54,25.90
2015,07,01,13,55,26.00
2015,07,01,13,56,26.20
2015,07,01,13,57,26.30
2015,07,01,13,58,26.30
2015,07,01,13,59,26.30
2015,07,01,14,00,26.30
2015,07,01,14,01,26.20
2015,07,01,14,02,26.30
2015,07,01,14,03,26.30
2015,07,01,14,04,26.20
2015,07,01,14,05,26.20
2015,07,01,14,06,26.20
2015,07,01,14,07,26.20
2015,07,01,14,08,26.10
2015,07,01,14,09,26.10
2015,07,01,14,10,26.10
2015,07,01,14,11,26.00
2015,07,01,14,12,26.00
2015,07,01,14,13,26.00
2015,07,01,14,14,26.10
2015,07,01,14,15,26.10
2015,07,01,14,16,26.10
2015,07,01,14,17,26.30
2015,07,01,14,18,26.30
2015,07,01,14,19,26.30
2015,07,01,14,20,26.30
2015,07,01,14,21,26.20
2015,07,01,14,22,26.20
2015,07,01,14,23,26.10
2015,07,01,14,24,26.10
2015,07,01,14,25,26.10
2015,07,01,14,26,26.10
2015,07,01,14,27,26.00
2015,07,01,14,28,26.00
2015,07,01,14,29,26.00
2015,07,01,14,30,26.00
2015,07,01,14,31,26.10
2015,07,01,14,32,26.20
2015,07,01,14,33,26.20
2015,07,01,14,34,26.30
2015,07,01,14,35,26.30
2015,07,01,14,36,26.40
2015,07,01,14,37,26.50
2015,07,01,14,38,26.60
2015,07,01,14,39,26.60
2015,07,01,14,40,26.60
2015,07,01,14,41,26.60
2015,07,01,14,42,26.60
2015,07,01,14,43,26.70
2015,07,01,14,44,26.70
2015,07,01,14,45,26.80
2015,07,01,14,46,26.80
2015,07,01,14,47,26.90
2015,07,01,14,48,27.00
2015,07,01,14,49,27.10
2015,07,01,14,50,27.10
2015,07,01,14,51,27.10
2015,07,01,14,52,27.00
2015,07,01,14,53,26.90
2015,07,01,14,54,26.90
2015,07,01,14,55,26.90
2015,07,01,14,56,26.90
2015,07,01,14,57,26.90
2015,07,01,14,58,26.80
2015,07,01,14,59,26.80
2015,07,01,15,00,26.80
2015,07,01,15,01,26.80
2015,07,01,15,02,26.80
2015,07,01,15,03,26.80
2015,07,01,15,04,26.70
2015,07,01,15,05,26.70
2015,07,01,15,06,26.70
2015,07,01,15,07,26.70
2015,07,01,15,08,26.80
2015,07,01,15,09,26.80
2015,07,01,15,10,26.90
2015,07,01,15,11,26.90
2015,07,01,15,12,27.00
2015,07,01,15,13,27.10
2015,07,01,15,14,27.10
2015,07,01,15,15,27.10
2015,07,01,15,16,27.20
2015,07,01,15,17,27.20
2015,07,01,15,18,27.30
2015,07,01,15,19,27.30
2015,07,01,15,20,27.40
2015,07,01,15,21,27.40
2015,07,01,15,22,27.40
2015,07,01,15,23,27.30
2015,07,01,15,24,27.30
2015,07,01,15,25,27.20
2015,07,01,15,26,27.20
2015,07,01,15,27,27.20
2015,07,01,15,28,27.20
2015,07,01,15,29,27.20
2015,07,01,15,30,27.20
2015,07,01,15,31,27.20
2015,07,01,15,32,27.20
2015,07,01,15,33,27.20
2015,07,01,15,34,27.20
2015,07,01,15,35,27.30
2015,07,01,15,36,27.30
2015,07,01,15,37,27.40
2015,07,01,15,38,27.40
2015,07,01,15,39,27.60
2015,07,01,15,40,27.60
2015,07,01,15,41,27.70
2015,07,01,15,42,27.70
2015,07,01,15,43,27.70
2015,07,01,15,44,27.80
2015,07,01,15,45,27.80
2015,07,01,15,46,27.80
2015,07,01,15,47,27.90
2015,07,01,15,48,28.00
2015,07,01,15,49,28.00
2015,07,01,15,50,28.10
2015,07,01,15,51,28.10
2015,07,01,15,52,28.20
2015,07,01,15,53,28.30
2015,07,01,15,54,28.40
2015,07,01,15,55,28.50
2015,07,01,15,56,28.60
2015,07,01,15,57,28.60
2015,07,01,15,58,28.70
2015,07,01,15,59,28.70
2015,07,01,16,00,28.80
2015,07,01,16,01,28.80
2015,07,01,16,02,28.90
2015,07,01,16,03,28.90
2015,07,01,16,04,28.90
2015,07,01,16,05,28.80
2015,07,01,16,06,28.80
2015,07,01,16,07,28.80
2015,07,01,16,08,28.80
2015,07,01,16,09,28.90
2015,07,01,16,10,28.90
2015,07,01,16,11,28.90
2015,07,01,16,12,28.90
2015,07,01,16,13,28.90
2015,07,01,16,14,28.90
2015,07,01,16,15,28.90
2015,07,01,16,16,28.80
2015,07,01,16,17,28.90
2015,07,01,16,18,28.80
2015,07,01,16,19,28.80
2015,07,01,16,20,28.80
2015,07,01,16,21,28.80
2015,07,01,16,22,28.80
2015,07,01,16,23,28.90
2015,07,01,16,24,28.90
2015,07,01,16,25,28.90
2015,07,01,16,26,28.90
2015,07,01,16,27,28.90
2015,07,01,16,28,28.90
2015,07,01,16,29,28.90
2015,07,01,16,30,29.00
2015,07,01,16,31,29.10
2015,07,01,16,32,29.10
2015,07,01,16,33,29.20
2015,07,01,16,34,29.20
2015,07,01,16,35,29.20
2015,07,01,16,36,29.20
2015,07,01,16,37,29.10
2015,07,01,16,38,29.10
2015,07,01,16,39,29.10
2015,07,01,16,40,29.10
2015,07,01,16,41,29.10
2015,07,01,16,42,29.20
2015,07,01,16,43,29.20
2015,07,01,16,44,29.20
2015,07,01,16,45,29.20
2015,07,01,16,46,29.20
2015,07,01,16,47,29.20
2015,07,01,16,48,29.20
2015,07,01,16,49,29.20
2015,07,01,16,50,29.30
2015,07,01,16,51,29.20
2015,07,01,16,52,29.30
2015,07,01,16,53,29.30
2015,07,01,16,54,29.30
2015,07,01,16,55,29.30
2015,07,01,16,56,29.30
2015,07,01,16,57,29.40
2015,07,01,16,58,29.40
2015,07,01,16,59,29.40
2015,07,01,17,00,29.50
2015,07,01,17,01,29.50
2015,07,01,17,02,29.50
2015,07,01,17,03,29.50
2015,07,01,17,04,29.50
2015,07,01,17,05,29.50
2015,07,01,17,06,29.50
2015,07,01,17,07,29.50
2015,07,01,17,08,29.50
2015,07,01,17,09,29.50
2015,07,01,17,10,29.50
2015,07,01,17,11,29.50
2015,07,01,17,12,29.60
2015,07,01,17,13,29.60
2015,07,01,17,14,29.60
2015,07,01,17,15,29.60
2015,07,01,17,16,29.60
2015,07,01,17,17,29.60
2015,07,01,17,18,29.70
2015,07,01,17,19,29.80